CAPE
7 30 175 272 288 166 103 145 178 201 265 341 359 359 336 393 552 555 515 547 598 553 612 705 931 1189 1280 1305 1043 722 574 412 150
0 0 1 38 87 147 130 85 130 298 341 339 375 421 394 389 501 600 548 619 730 657 646 678 757 1012 1332 1345 1136 848 574 417 171
0 0 0 2 0 19 52 85 86 247 411 406 457 552 561 563 592 663 626 667 818 830 770 841 782 1123 1196 1254 1212 1012 755 638 366
0 0 0 0 0 7 26 49 39 102 340 435 496 806 787 762 743 753 718 743 826 884 867 950 711 996 1092 1194 1304 1148 940 777 531
0 0 0 0 0 2 21 37 60 47 271 377 451 849 969 912 824 801 777 776 830 874 957 956 672 905 1095 1064 1308 1146 1074 985 682
0 0 0 0 0 0 0 4 41 66 162 404 434 605 975 1009 923 848 842 836 831 909 996 987 866 1194 1177 1322 1269 1063 1074 1097 767
0 0 0 0 0 0 0 0 35 66 145 350 502 518 768 922 1009 977 1019 1020 981 927 978 1028 819 1162 1238 1326 1264 1008 987 992 850
0 0 0 0 0 0 5 21 36 109 172 371 556 637 725 879 900 932 984 1068 1158 1190 1115 1081 1063 953 1401 1380 1292 1188 978 887 885
0 0 0 0 0 0 85 185 190 171 340 556 775 789 859 971 1067 1067 1080 1059 1032 1123 1280 1259 1203 1074 1191 1544 1272 1285 1361 1258 1292
0 0 0 0 0 0 60 222 397 347 471 788 939 955 1024 1164 1236 1308 1353 1365 1271 1141 1171 1313 1287 1274 1099 1142 1463 1394 1394 1397 1433
0 0 0 0 0 0 0 90 411 442 441 907 1138 1148 1186 1428 1503 1490 1536 1580 1529 1424 1303 1282 1378 1373 1396 1243 1267 1571 1761 1705 1653
0 0 0 0 0 0 2 139 414 494 437 840 1356 1409 1422 1598 1730 1716 1732 1822 1853 1759 1588 1442 1466 1426 1508 1558 1464 1366 1529 1714 1775
0 0 0 0 0 0 3 130 278 227 458 922 1294 1727 1746 1802 1797 1714 1682 1810 1990 2053 1985 1835 1685 1730 1662 1695 1704 1605 1447 1515 1719
0 0 0 0 0 0 0 11 150 330 452 853 1278 1655 1882 1951 1977 1949 1817 1792 1859 1951 2153 2155 1954 1868 1816 1819 1892 1932 1831 1657 1719
81 748 1435 405 419 281 0 164 420 548 638 795 1064 1586 1821 1962 2118 2202 2159 2162 2125 2098 2180 2296 2352 2208 2004 1922 1998 2077 2092 1971 2067
2123 2344 2184 1848 1758 2029 2162 153 394 684 816 873 901 1074 1645 1973 2142 2369 2395 2393 2248 2213 2332 2434 2426 2332 2343 2256 2995 2131 2318 2344 2414
2283 2390 2321 2056 1890 1773 1842 2283 2190 1927 1689 1442 877 776 1091 1393 1968 2228 2457 2393 2321 2277 2381 2444 2443 2461 2330 2550 2948 2486 2271 2426 2169
1704 1547 1427 1244 1224 1270 997 1089 887 872 1395 1909 1934 1420 1047 951 1293 1641 2248 2463 2406 2367 2369 2364 2446 2428 2435 2752 2531 1935 1742 1356 1327
1189 1134 1205 1070 912 869 575 315 119 65 372 801 1255 1985 1831 1319 1177 1346 1974 2258 2253 2314 2294 2332 2342 2328 2365 2008 1383 746 292 52 90
478 460 417 261 267 359 555 827 658 370 201 208 107 210 1517 2146 1547 1191 1393 1742 1984 1877 2253 2387 2425 2271 2028 967 737 453 4 1 40
CIN
-280 -287 -282 -272 -258 -301 -302 -510 -402 -570 -550 -462 -408 -339 -305 -266 -104 -96 -150 -76 -62 -113 -115 -118 -71 -53 -30 -27 -46 -90 -115 -128 -171
-0 -0 -53 -342 -298 -284 -256 -317 -535 -614 -576 -480 -437 -388 -350 -280 -180 -110 -115 -100 -74 -78 -81 -214 -138 -79 -46 -52 -57 -101 -120 -127 -171
-0 -0 -0 -13 -0 -367 -311 -288 -461 -618 -600 -518 -594 -538 -483 -420 -382 -334 -269 -163 -95 -99 -104 -137 -160 -72 -74 -78 -70 -100 -115 -117 -136
-0 -0 -0 -0 -0 -23 -10 -24 -133 -665 -597 -551 -597 -530 -488 -434 -392 -355 -219 -192 -124 -105 -108 -93 -202 -111 -103 -108 -79 -94 -106 -113 -122
-0 -0 -0 -0 -0 -59 -33 -9 -28 -67 -678 -620 -684 -613 -522 -487 -448 -406 -282 -238 -189 -120 -120 -124 -216 -158 -116 -137 -103 -113 -118 -118 -130
-0 -0 -0 -0 -0 -0 -0 -10 -34 -29 -720 -695 -696 -691 -577 -512 -488 -452 -426 -297 -227 -171 -129 -145 -192 -132 -142 -128 -127 -129 -141 -120 -135
-0 -0 -0 -0 -0 -0 -0 -0 -16 -27 -23 -743 -722 -672 -653 -595 -555 -511 -461 -415 -369 -248 -192 -159 -222 -176 -171 -160 -150 -173 -184 -164 -165
-0 -0 -0 -0 -0 -0 -40 -35 -36 -39 -871 -837 -762 -733 -701 -688 -655 -566 -521 -451 -395 -378 -356 -248 -226 -244 -179 -184 -180 -159 -167 -146 -139
-0 -0 -0 -0 -0 -0 -27 -31 -24 -43 -922 -887 -825 -785 -775 -695 -637 -591 -559 -522 -465 -425 -387 -344 -255 -259 -247 -195 -225 -212 -165 -142 -116
-0 -0 -0 -0 -0 -0 -299 -143 -28 -31 -921 -843 -821 -832 -813 -726 -663 -605 -570 -518 -471 -481 -461 -381 -324 -265 -295 -310 -232 -222 -193 -158 -127
-0 -0 -0 -0 -0 -0 -0 -350 -24 -47 -276 -872 -819 -843 -794 -711 -658 -633 -558 -495 -495 -490 -480 -476 -419 -318 -283 -317 -327 -244 -177 -139 -121
-0 -0 -0 -0 -0 -0 -28 -61 -22 -45 -638 -830 -753 -734 -747 -737 -690 -617 -558 -514 -509 -479 -441 -452 -471 -389 -296 -285 -302 -341 -261 -158 -126
-0 -0 -0 -0 -0 -0 -17 -57 -56 -532 -596 -836 -815 -730 -769 -761 -711 -660 -614 -594 -494 -432 -397 -407 -391 -367 -358 -306 -259 -256 -267 -225 -161
-0 -0 -0 -0 -0 -0 -0 -41 -209 -554 -630 -866 -873 -804 -709 -673 -646 -622 -628 -570 -504 -440 -335 -316 -338 -344 -329 -329 -298 -256 -204 -201 -153
-567 -759 -662 -699 -483 -570 -0 -345 -540 -495 -528 -881 -816 -677 -603 -586 -614 -600 -551 -522 -463 -377 -309 -233 -219 -222 -262 -310 -276 -220 -204 -210 -187
-453 -459 -472 -552 -627 -540 -540 -517 -340 -424 -410 -414 -436 -584 -549 -585 -536 -478 -399 -441 -390 -383 -305 -222 -186 -223 -216 -220 -101 -226 -131 -39 -8
-283 -317 -315 -390 -277 -247 -436 -414 -410 -480 -535 -601 -600 -549 -534 -531 -426 -380 -313 -296 -343 -263 -302 -440 -287 -283 -276 -219 -129 -106 -61 -2 -7
-201 -228 -222 -251 -227 -213 -236 -204 -187 -394 -503 -406 -376 -442 -441 -458 -501 -467 -321 -241 -246 -246 -209 -184 -122 -175 -123 -21 -88 -92 -51 -34 -2
-210 -226 -225 -233 -229 -216 -215 -402 -584 -240 -155 -137 -490 -403 -410 -362 -344 -460 -322 -236 -217 -180 -142 -104 -45 -23 -51 -52 -68 -26 -25 -52 -0
-219 -508 -558 -568 -650 -672 -607 -541 -525 -497 -482 -836 -832 -885 -441 -272 -299 -310 -367 -265 -178 -148 -84 -83 -59 -14 -8 -78 -65 -15 -5 -1 -112
Wind_Speed
nan nan 9 11 15 14 18 18 20 17 16 14 12 13 12 11 10 9 8 8 10 9 11 13 19 19 17 9 11 12 12 13 12
nan nan nan nan nan 14 17 nan 18 19 19 14 12 12 12 13 13 11 10 11 12 11 12 15 19 18 13 10 9 12 14 12 12
nan nan nan nan nan nan nan nan nan 14 18 17 14 16 15 13 13 14 15 17 12 13 16 18 18 17 10 8 8 11 15 13 9
nan nan nan nan nan nan nan nan nan 12 15 18 15 14 15 16 14 14 16 19 16 17 20 19 16 14 12 7 8 12 15 13 14
nan nan nan nan nan nan nan nan nan nan 19 17 15 17 17 17 16 18 17 15 15 19 17 18 15 13 11 6 8 12 14 15 17
nan nan nan nan nan nan nan nan nan nan 19 17 15 18 19 18 19 18 19 17 15 19 17 17 16 14 10 6 9 13 14 17 18
nan nan nan nan nan nan nan nan nan nan 13 15 16 18 18 18 18 18 20 21 20 18 15 18 16 12 11 8 11 13 15 18 18
nan nan nan nan nan nan nan nan nan 19 16 19 19 17 17 14 16 17 18 21 19 17 15 14 15 15 14 12 14 16 20 20 21
nan nan nan nan nan nan nan 26 27 27 26 24 21 20 16 18 15 17 18 21 20 16 14 17 20 15 15 16 17 20 27 28 24
nan nan nan nan nan nan nan 28 33 30 25 31 34 17 17 17 19 18 18 21 24 23 21 20 18 18 19 17 19 27 30 32 28
nan nan nan nan nan nan nan nan 32 32 34 26 22 23 20 21 19 19 19 24 25 27 28 26 21 20 21 23 23 30 32 35 31
nan nan nan nan nan nan nan 36 36 38 35 23 19 22 21 26 25 24 22 24 26 27 28 26 26 28 27 27 28 34 36 41 34
nan nan nan nan nan nan nan 39 46 45 39 32 32 26 24 28 32 31 30 30 32 29 29 27 29 30 29 28 28 35 41 44 38
nan nan nan nan nan nan nan nan 48 41 40 40 26 26 32 31 34 36 29 37 30 29 29 33 34 35 36 32 35 39 45 47 43
nan 46 47 48 49 51 nan 49 47 43 38 29 33 33 33 32 35 35 42 47 38 40 35 36 36 38 42 41 41 44 51 57 51
42 42 45 45 50 52 56 54 52 47 46 42 43 40 34 36 34 34 38 40 44 55 55 33 38 42 40 45 51 58 60 56 53
44 44 43 45 51 53 55 63 60 58 56 53 50 48 43 48 41 42 43 45 54 55 45 49 55 45 32 44 54 61 67 70 73
50 49 48 42 47 48 47 44 49 58 63 62 59 54 51 54 57 56 51 58 64 40 54 54 50 56 52 56 57 68 70 68 68
59 59 54 50 49 53 51 51 51 nan 49 52 51 51 51 55 64 64 63 69 71 72 74 80 75 76 74 77 81 73 69 nan nan
54 55 58 61 56 54 56 57 55 51 52 56 56 58 55 54 62 67 66 69 75 80 75 87 85 81 75 75 84 79 nan nan nan
Wind_Direction
nan nan 82 66 47 12 353 2 356 1 352 342 326 310 306 290 292 275 273 282 276 280 288 305 309 314 313 327 332 324 324 326 326
nan nan nan nan nan 43 22 nan 9 11 5 2 353 339 306 302 293 291 280 277 282 276 278 285 297 304 306 320 326 320 320 317 330
nan nan nan nan nan nan nan nan nan 14 9 4 358 3 345 312 303 293 279 271 274 275 272 283 285 293 277 297 308 309 312 313 319
nan nan nan nan nan nan nan nan nan 352 348 341 358 351 353 348 330 303 279 272 271 262 266 281 280 271 278 276 306 309 308 311 324
nan nan nan nan nan nan nan nan nan nan 334 338 350 336 344 348 335 322 317 297 275 261 255 263 262 255 266 265 299 310 319 321 320
nan nan nan nan nan nan nan nan nan nan 318 337 333 324 338 339 339 327 325 317 291 261 245 253 244 256 259 279 298 312 319 319 318
nan nan nan nan nan nan nan nan nan nan 303 304 313 321 329 339 347 342 339 324 315 278 246 246 242 264 251 279 290 303 312 312 319
nan nan nan nan nan nan nan nan nan 271 269 283 295 310 315 350 346 348 343 338 333 314 280 258 250 260 252 267 281 283 299 302 312
nan nan nan nan nan nan nan 271 281 296 299 278 283 306 329 313 321 334 343 336 329 311 306 280 268 269 265 271 271 291 303 310 312
nan nan nan nan nan nan nan 275 278 289 289 287 281 286 292 305 310 311 322 318 319 324 313 290 286 279 270 276 280 288 302 311 306
nan nan nan nan nan nan nan nan 273 282 284 304 332 291 273 284 293 299 298 304 316 317 315 310 291 291 289 280 274 285 298 307 299
nan nan nan nan nan nan nan 268 275 281 272 294 310 299 269 281 289 290 291 308 315 304 298 304 306 292 291 290 281 291 298 292 292
nan nan nan nan nan nan nan 264 270 275 284 291 308 307 277 278 287 290 291 302 301 289 288 285 278 288 290 287 283 286 289 296 291
nan nan nan nan nan nan nan nan 259 273 279 287 308 280 271 274 273 282 277 283 284 276 278 273 275 279 278 282 279 281 288 290 281
nan 242 242 249 254 248 nan 252 260 262 268 260 250 249 256 258 265 283 288 286 280 276 269 274 272 272 266 269 274 277 285 294 290
241 235 238 241 249 245 244 244 244 247 242 247 251 256 254 253 254 268 262 282 268 265 272 262 264 267 267 265 264 273 281 283 276
244 241 244 244 245 244 242 239 240 240 242 247 248 249 246 248 250 265 271 268 260 282 279 296 307 292 288 268 274 272 275 274 267
242 248 255 250 247 247 245 247 247 244 243 246 250 255 263 270 268 271 266 252 262 259 274 279 281 283 283 278 267 260 271 264 264
240 243 249 253 247 250 249 252 256 nan 254 256 257 258 260 264 265 264 265 259 261 251 268 268 267 267 272 269 266 258 257 nan nan
241 245 245 246 247 246 250 256 260 265 267 268 268 269 267 268 273 271 273 270 266 263 253 265 267 267 271 271 270 277 nan nan nan